INTELSAT 33E DEB, 61990

Orbit data source: Space-Track

INTELSAT 33E DEB, 61990 is space debris in GEO originally from a launch on Wed, 24 Aug 2016 UTC launched from the French Guiana (FRGUI). Debris objects in space refer to the collection of defunct objects orbiting the Earth. Examples of debris include non-operational satellites, rocket bodies, and fragments generated from explosions, collisions, or faulty payload assembly.

Loading next visibility...
Identifier
61990, 2016-053G
Orbit
GEO
Country
Flag of USUS / ITSO
Related business
Manufacturer
Boeing/ES
Mission
Spacecraft
Bus & Motor
Unknown
Mass
Unknown
Launch date (UTC)
2016-08-24 (10 years ago)
Launch vehicle
Unknown
Launch site
French Guiana (FRGUI)
Object type
Payload
Rocket body
Debris
Shape & HBR
Unknown shape, 1.1 m
Radar Cross Section
RCS unknown

Expand to show TLE details & history
Last TLE update: 1 day ago

TLE from 1 day ago
0 INTELSAT 33E DEB
1 61990U 16053G   26254.37548389 -.00000295  00000-0  00000+0 0  9992
2 61990   1.6771  75.2696 0116310 347.4176  13.1831  1.01393416  7022
Epoch: 2026-09-11T09:00Z
TLE epoch observation values (Epoch: 2026-09-11T09:00:41.808Z)
Latitude
Longitude
-49.39401°
Altitude
35,003.397 km
Speed
3.121 km/s
True Right ascension
05h 04m 43s
True Declination
0° 00' 00"
Sunlit
Object was in daylight at epoch
Visualization orbit readout
Latitude
Unknown
Longitude
Unknown
Altitude
Unknown
Speed
Unknown
Apparent Right ascension
Unknown
Apparent Declination
Unknown
Sunlit
N/A
Visualization observer readout
Local Sidereal Time
02:04:46
Azimuth
Unknown
Elevation
Unknown
Doppler factor
Unknown
Orbital elements
Apogee altitude
35,962.947 km
Perigee altitude
34,989.333 km
Semi-major axis
41,854.277 km
Eccentricity
0.01163
Inclination
1.6771°
RAAN
75.2696°
Arg. of periapsis
347.4176°
True anomaly
13.49143°
Mean anomaly
13.1831°
Eccentric anomaly
13.33682°
Mean motion
0.25347 °/min
Orbital period
1,420.26 mins
BSTAR
0
Loading maneuver chart data...
Computing Atmospheric mass density...
Loading historical data...
Loading historical data...
Loading historical data...
Loading historical data...
Loading historical data...
Loading historical data...
Loading historical data...

Documentation

Showing up to 5 results
|